GFSFLT1_prec_radar_132.txt.gz
Reflectivity
-20 -2 -13 -20 -20 -20 -20 -20 -20 -20 -19 -8 -5 -1 -10 -20 -20 -20 -19 -0 11 14 12 13 -20 -20 -10 -4 -20 -4 -16 -20
-5 -3 11 10 -20 -20 -20 -20 -20 -18 29 -4 -16 -17 -11 -20 -20 -20 -20 -20 13 16 12 9 -4 -18 -20 32 -20 -20 -20 -5
-20 -20 -10 1 -20 -20 -20 -20 -20 -20 -20 -18 5 15 -20 -20 -20 -20 -20 -20 -20 3 -13 31 19 13 5 -17 -6 15 -20 -19
5 5 -20 -20 -20 -20 -20 -1 -20 -20 -20 -20 -20 -20 -20 -20 -20 -20 -20 -20 -20 14 -20 -19 -10 32 -16 -4 11 6 14 11
18 4 -17 -20 -19 -19 -20 -17 -12 -19 -20 -20 -20 -20 -20 -20 -20 -20 -20 -20 -17 28 19 12 28 -7 -20 9 15 13 12 11
14 -16 -5 -20 -20 -20 -20 7 20 8 -20 -20 12 -20 -20 -20 -20 -20 8 11 13 17 17 17 13 10 13 10 13 20 9 12
-8 -20 -13 -20 -20 -20 -20 -6 9 12 -8 -19 -20 -20 -20 -20 -20 12 5 -9 18 17 10 16 19 20 15 3 18 19 12 -2
-18 -20 -20 -20 -20 -8 8 7 7 6 -6 -13 -20 -20 -20 -20 -12 17 14 -7 7 16 16 5 16 17 5 11 0 15 15 3
-20 -20 -20 -20 -20 -10 17 11 -2 -1 -8 4 -18 -20 -20 -19 -3 -20 16 -15 -3 13 15 17 14 18 17 26 13 15 -2 2
-20 -20 -20 -20 -20 10 11 4 -13 -16 -20 -20 -20 -20 -18 -7 -20 4 -20 19 17 -9 7 6 12 13 20 5 16 4 -4 15
22 -6 -20 -20 -6 -2 -5 4 -18 -19 -16 -15 -20 -20 -20 -20 -20 -20 -19 7 -9 7 11 14 17 21 30 24 13 -2 2 11
34 21 0 -0 6 5 -7 -12 -20 -20 -17 -11 -20 -20 -20 -20 -20 -20 -20 -15 26 18 5 -1 2 21 27 13 5 11 9 18
21 39 25 10 3 -20 -20 2 3 -4 -19 -19 -20 -20 -20 -20 -20 -20 7 5 14 19 7 -16 -14 6 12 9 9 14 -2 -7
11 18 30 17 -18 -20 -19 -9 -1 -18 -20 -20 -20 -20 -20 -20 -20 -20 -20 4 -6 14 28 -6 -15 -1 -20 20 -13 -11 -0 -7
10 15 20 18 -18 -20 -20 4 -20 -20 -20 -20 -20 -20 -20 -20 -20 -20 -20 -11 11 22 15 26 -3 -4 -20 -20 -12 -15 -20 -12
14 19 21 -4 -20 -20 -12 -20 -20 -20 -20 -20 -20 -20 -20 -20 -20 -20 -20 -20 -6 14 26 24 21 -19 11 -20 9 14 -4 8
17 13 9 11 3 -20 -20 -20 -20 -20 -20 -20 -20 -20 -20 -20 -20 -20 -20 -20 -20 12 17 28 -9 -9 14 11 -9 -20 -20 -20
9 7 8 0 -19 -20 -20 -20 -20 -20 -20 -20 -20 -20 -20 -20 -20 -20 -20 -20 -2 -15 10 11 24 17 12 1 1 -20 2 -20
-20 -20 -20 -20 -20 -20 -20 -20 -20 -20 -20 -20 -20 -20 -20 -20 -20 -20 -20 -20 -15 -20 -2 22 49 25 14 -6 10 -4 -3 -14

GFSFLT1_prec_radar_135.txt.gz
Reflectivity
-20 2 6 -20 -20 -20 -20 -20 -20 -20 -20 -20 -20 -14 -17 -20 -20 -19 -20 -20 -20 -20 -20 -20 -20 -20 -20 -20 -16 -19 -20 -20
-20 -20 -9 7 -12 7 -20 -20 -20 -20 -20 -20 -20 -2 9 12 5 5 -20 -19 -20 -20 -20 -20 7 6 2 13 -17 -16 -20 -20
-20 -20 -20 -20 -20 -20 -20 -5 3 -7 -20 -20 17 -19 -18 5 -3 -17 -10 -17 -20 -20 -20 -7 -20 -11 -4 26 -6 -12 -20 -20
-20 -20 -20 -20 -20 -20 -20 -20 5 5 -17 15 -10 -20 -12 -20 -20 -20 -20 -20 8 -7 -20 15 -20 7 -7 33 -14 -19 5 -13
-20 -20 -20 -20 -20 -20 -20 -20 -20 7 12 -13 -1 -15 1 -20 -20 -20 -20 -0 -2 -10 -18 6 -20 -20 23 -20 18 -9 12 12
-20 -20 -20 -20 -20 -20 -9 -13 -11 -9 -17 4 -18 -2 -5 4 -2 -13 -15 12 2 27 -13 8 -20 -18 -20 -20 16 19 -8 16
-20 -20 -20 -20 -20 -20 -20 -18 -16 1 2 -5 5 2 12 9 12 11 2 21 13 16 -3 12 17 -20 4 -7 -20 -8 1 12
-20 -20 -20 -20 -20 -20 2 18 16 10 7 -11 -17 -20 -20 6 7 1 7 -18 16 19 22 25 16 12 -13 -15 0 10 -5 11
-20 -20 -20 -20 -16 2 9 16 22 5 -4 -8 -20 -20 -20 -17 6 1 2 -17 -16 -13 24 24 15 -20 4 12 30 11 5 18
-20 -20 -20 13 14 10 13 20 -9 19 11 7 -12 -20 -20 -20 -20 -20 -19 -20 -20 -20 -20 12 31 -15 6 19 16 21 18 25
15 27 25 21 18 15 11 3 -17 14 8 -5 -20 -20 -20 -20 -6 -19 -20 -20 -17 -8 -20 -20 -15 7 -0 9 17 16 18 22
22 27 25 23 24 3 -1 -18 23 8 -13 -20 -20 -20 -20 -20 -20 -20 -8 -17 -8 -9 -7 16 -1 9 6 -3 -15 4 17 16
29 32 16 22 21 -8 -9 8 -0 -5 -20 -20 -20 -20 -20 -12 -2 -20 -20 -20 -20 5 7 -8 -3 16 9 10 10 15 11 11
37 38 35 33 28 20 13 13 -7 -20 -20 -20 -20 -20 -20 -20 -11 -7 -20 -20 -20 -12 10 -2 21 16 17 10 9 14 11 9
41 42 42 39 33 29 20 7 -7 -20 -20 -20 -20 -20 -20 -20 -20 -20 -20 -20 -20 -20 -5 7 1 16 21 -15 -12 -20 8 10
36 35 25 24 23 14 4 -20 -20 -20 -20 -20 -20 -20 -20 -20 -20 -20 -20 -20 -20 -20 -20 10 6 -2 25 20 -18 -20 -20 -20
21 20 7 6 -12 -20 -1 -20 -20 -20 -20 -20 -20 -20 -20 -20 -20 -20 -20 -20 -20 -20 -17 -1 17 4 15 6 -6 -20 -20 -8
10 17 18 10 -15 -16 2 -17 -20 -20 -20 -20 -20 -20 -20 -20 -20 -20 -20 -20 -20 -20 -20 -20 -3 -12 16 22 28 -20 -20 -20
-20 -16 5 12 15 7 -3 4 -18 -20 -20 -20 -20 -20 -20 -20 -20 -20 -20 -20 -20 -20 -20 -20 -20 -2 19 19 46 6 -20 -20

GFSFLT1_prec_radar_138.txt.gz
Reflectivity
-20 -20 -20 -20 -20 -20 -20 -20 -20 -20 -20 -20 -8 -19 -20 -20 -20 -20 -20 -16 0 6 -8 -3 -5 6 -20 3 -1 -15 15 -20
-20 -20 -20 -20 -20 -20 -20 -20 -20 -6 -20 -20 -20 -20 -19 -15 -20 -20 -20 -20 -20 -20 -20 2 0 13 0 -7 -10 -20 28 14
-20 -20 -20 -20 -20 -20 -20 -20 -4 7 2 8 -13 -20 30 7 4 -2 -14 -14 -8 10 -19 6 -5 22 -10 -20 -7 3 23 29
-20 -20 -20 -20 -20 -20 -20 -20 -20 -20 -20 -0 8 -2 36 9 19 14 20 -0 22 -14 -6 10 7 -5 13 10 -12 31 20 10
-20 -20 -20 -20 -20 -20 -20 -20 -20 -15 -15 -2 2 6 -17 -20 33 18 33 22 1 -1 11 17 -4 9 13 3 28 15 18 15
-20 -20 -20 -20 -20 -20 -20 -20 -20 -20 -20 -3 9 32 8 21 -2 10 7 15 2 -0 20 5 -11 -6 4 17 -14 20 -12 -9
-20 -20 -20 -20 -20 -20 -20 -20 -20 -20 -6 8 -6 20 22 8 -19 -20 -19 -8 -6 -0 12 -3 -10 -2 -2 4 -2 6 11 7
-20 -20 -20 -20 -20 -20 -20 31 -20 -3 -6 3 31 -20 6 -20 -20 -20 -20 -20 -20 -6 15 6 12 5 4 11 1 -17 6 4
-20 -20 -20 12 26 26 27 27 3 -20 -20 12 -1 16 -10 -15 -20 -20 -20 -20 -20 25 -19 -3 -19 -16 1 18 21 17 -4 17
-7 -12 -20 -15 15 26 26 26 20 -20 -20 -20 4 27 8 -20 -9 -20 -20 -20 -20 -11 -9 -20 -11 -20 -20 15 15 13 -19 8
13 32 2 21 -0 6 10 -20 -20 -16 -20 -16 11 15 -20 -20 -20 -20 -20 -20 -20 -20 -20 -20 7 -10 -20 -8 28 -16 -3 15
24 22 33 27 0 -20 10 -5 -20 -18 -19 25 -12 -15 -20 -20 -20 -20 -20 -20 -20 1 -16 -20 -14 -6 5 -10 -19 8 -9 -8
33 20 38 44 17 14 16 -20 -6 -4 5 13 14 -20 -20 -20 -20 -20 -20 -20 -20 -19 -16 -15 -1 1 -9 31 16 -4 -2 11
42 32 39 44 34 33 31 26 -14 -4 -20 -20 -20 -20 -20 -20 -20 -20 -20 -20 -20 -16 -19 -20 3 7 16 -16 -7 6 5 9
39 36 38 43 40 31 19 35 22 -1 -20 -20 -20 -20 -20 -20 -20 -20 -20 -20 -20 -20 -20 -20 -20 10 -2 18 21 20 3 13
23 26 30 38 29 26 22 21 6 -19 -20 -20 -20 -20 -20 -20 -20 -20 -20 -20 -20 -20 -20 -18 -18 -14 8 -17 -3 2 -4 11
11 18 16 22 24 6 8 -6 1 -20 -20 -20 -20 -20 -20 -20 -20 -20 -20 -20 -20 -20 -20 -20 -19 -19 18 20 6 7 28 -10
3 2 8 14 16 11 7 7 12 2 -3 -10 -20 -20 -20 -20 -20 -20 -20 -20 -20 -20 -20 -20 -20 -20 5 11 13 13 21 30
-20 -14 5 10 11 10 12 0 -4 -10 -11 -11 -16 -20 -20 -20 -20 -20 -20 -20 -20 -20 -20 -20 -20 -20 -20 -13 13 -2 20 16

GFSFLT1_prec_radar_141.txt.gz
Reflectivity
-20 -20 -20 -20 -20 -20 -20 -20 -20 -20 -20 -20 -5 -5 -20 -19 -5 -20 -20 -5 3 7 -20 -20 -20 -13 -20 -1 -20 -2 4 -4
-20 -20 -20 -20 -20 -20 -20 -20 -20 -20 -20 -4 -4 -5 -20 -20 -20 -20 3 -20 -6 5 3 -8 -20 -20 -19 -20 -20 -18 -20 1
-20 -20 -20 -20 -20 -20 -20 -20 -20 -20 -20 -20 -20 -8 -0 2 1 -3 -6 11 -13 -20 3 -20 -15 -14 -14 9 6 -20 -11 -11
-20 -20 -20 -20 -20 -20 -20 -20 -20 -20 -20 -15 3 9 14 7 -19 -19 -20 1 12 1 -9 1 1 28 14 11 10 -18 -16 -8
-20 -20 -20 -20 -20 -20 -20 -20 -20 -20 -20 5 7 1 -12 -15 -1 -4 -8 9 5 29 15 27 -1 22 21 9 7 11 8 -8
-20 -20 -20 -20 -20 -20 -20 -20 -20 -20 -20 9 13 1 -2 -16 8 12 -12 1 -20 -20 13 47 37 34 25 4 0 3 7 16
-20 -20 -20 -20 -20 -20 -20 -20 -20 -20 -2 15 19 29 -1 -13 4 -13 34 0 6 -0 13 11 4 22 20 -4 -1 -9 14 14
-20 -20 -13 -20 -12 -17 -4 4 -12 16 12 15 22 26 -16 -20 18 14 41 36 29 12 4 2 7 23 12 15 20 -11 -2 15
-20 11 12 21 25 20 15 8 -20 24 24 -14 19 32 -10 9 1 38 26 12 -1 8 -16 -9 13 -3 -6 -4 16 -3 17 18
-17 24 18 23 17 18 27 20 22 22 26 22 25 -15 -7 3 -20 20 13 -13 5 14 11 11 -12 16 -6 18 17 -5 11 1
11 33 26 32 19 18 15 16 23 25 13 -12 -20 -20 -20 -20 -20 -9 14 14 -9 -20 -20 0 0 5 -8 24 10 -0 -8 -6
35 39 36 34 28 25 -9 6 31 32 19 -4 -20 -20 -20 -20 -20 -20 -20 -20 -20 -20 -20 -5 5 11 5 20 19 4 11 -9
31 35 37 34 39 37 13 -20 -20 17 10 -6 -19 -20 -20 -4 -3 3 -20 -20 -20 -20 -20 -20 -20 15 5 6 20 1 11 2
28 31 33 37 37 40 35 26 1 -17 -14 -18 -20 -20 0 -9 -18 -20 -20 -20 -20 -20 -20 -20 -20 -20 -15 15 2 9 20 -14
29 31 29 35 36 30 32 33 32 25 20 -7 5 1 9 -20 -20 -20 -20 -20 -20 -20 -20 -20 -20 -20 -20 -9 24 17 6 1
4 12 17 16 27 27 26 31 28 23 29 17 6 -20 -20 -20 -20 -20 -20 -20 -20 -20 -20 -20 -20 -20 -20 -20 -16 16 12 21
-20 -2 5 4 18 21 23 24 22 8 7 12 -10 -20 -20 -20 -20 -20 -20 -20 -20 -20 -20 -20 -20 -20 -16 -10 -20 -19 -2 7
-20 -20 -6 -2 11 11 20 19 19 8 1 -2 13 -16 -20 -20 -20 -2 -13 -11 -20 -20 -20 -20 -20 -20 -7 -20 -20 -20 -20 -2
-20 -20 -20 -19 -4 2 6 13 16 10 -3 -3 -6 -5 -13 -4 -5 -20 -16 -17 -20 -20 -20 -20 -20 -20 -14 -9 -20 -20 -20 -10

GFSFLT1_prec_radar_144.txt.gz
Reflectivity
-20 -20 -20 -20 -20 -20 -20 -20 -20 -20 -20 -20 -20 -20 -20 -20 -20 -20 -20 1 -1 8 -20 -4 -19 6 -16 -15 -6 -7 -20 -20
-20 -20 -20 -20 -20 -20 -20 -20 -20 -20 -20 -20 -20 -20 -20 -20 -20 -20 -20 -20 1 7 -2 9 12 6 10 9 -9 -20 3 -16
-20 -20 -20 -20 -20 -20 -20 -20 -20 -20 -20 -20 -20 -20 -20 -20 -20 -20 -20 -20 -6 5 8 -12 -3 13 12 7 -14 -2 10 6
-20 -20 -20 -20 -20 -20 -20 -20 -20 -20 -20 -20 -20 -20 -20 -18 2 8 -2 -20 -20 3 -2 9 -12 1 10 9 21 25 5 24
-20 -20 -20 -20 -20 -20 -20 -20 -20 -20 -20 -20 -20 -20 -20 -20 -13 5 9 10 -15 3 8 7 -20 25 43 12 6 -7 26 14
-20 -20 -20 -20 -20 -20 -20 -20 -20 -20 -20 -20 -20 -20 -20 -11 9 9 -12 16 12 8 14 -19 -13 3 16 33 26 9 24 23
-10 -20 -20 -20 -20 -20 -18 -5 5 -20 -13 -16 -20 -20 12 17 18 -8 13 15 16 29 17 25 20 -15 -20 -9 30 22 23 12
-2 -19 -20 -20 -20 -8 -11 0 0 18 10 -0 10 14 21 6 3 31 20 29 24 17 -10 22 33 5 -20 -10 31 26 32 11
2 -14 -11 -4 8 18 13 6 14 18 21 16 16 -3 6 1 -8 -20 -14 -20 -7 -13 25 35 49 25 0 1 12 -4 21 17
-1 -9 -10 -7 21 18 26 10 7 18 12 21 21 25 27 13 26 23 15 27 -8 19 25 31 29 16 26 18 14 8 7 15
-16 -13 4 -9 15 29 19 21 14 24 19 20 20 22 4 25 25 -6 6 20 28 19 -10 19 18 12 5 25 25 21 24 13
-0 4 12 13 22 31 24 29 16 2 31 19 19 -1 -20 15 5 14 -0 -20 -20 -20 -20 -20 -20 -20 10 -8 12 25 18 24
-1 3 5 19 25 21 33 29 22 6 41 25 16 -3 -16 -20 -8 -20 -20 -20 -20 -20 -20 -20 -20 4 -20 14 20 7 20 20
-20 -20 -6 0 15 25 32 33 35 18 25 37 40 30 6 11 17 -10 -20 -20 -20 -20 -20 -20 -20 -20 -20 -20 -20 9 8 16
-20 -20 -20 -20 -8 10 13 24 38 36 18 17 27 25 30 34 26 -11 -20 -11 -20 -20 -20 -20 -20 -20 -20 -20 -20 -20 -15 7
-20 -20 -20 -20 -20 7 10 24 26 33 20 20 5 4 6 5 -16 -20 -17 -19 -20 -20 -20 -20 -20 -20 -20 -20 -19 -20 -20 -19
-20 -20 -20 -20 -20 -15 10 14 22 21 8 1 9 5 5 2 -20 -6 -8 -20 -20 -20 -20 -20 -20 -20 -13 10 6 -20 -20 -20
-20 -20 -20 -20 -20 -20 6 6 15 11 8 5 -19 -20 -20 -20 -20 -6 -2 -20 -19 -20 -20 -20 -20 -20 10 -8 -9 -20 -20 -20
-20 -20 -20 -20 -20 -20 -15 -2 10 9 11 -5 -11 -16 -20 -9 -9 -20 -20 -20 -13 -11 -4 -11 -20 -20 -2 -19 -20 -20 -20 -20

GFSFLT1_prec_radar_147.txt.gz
Reflectivity
-20 -20 -20 -20 -20 -20 -20 -20 -20 -20 -20 -20 -20 -20 -20 -20 -20 -20 -20 -20 -3 -2 -20 -20 -20 8 -20 -20 -20 -20 -1 -20
-20 -20 -20 -20 -20 -20 -20 -20 -20 -20 -20 -20 -20 -20 -20 -20 -20 -20 -20 -20 -9 -20 7 -20 0 3 -20 -13 3 1 5 -20
-20 -20 -20 -20 -20 -20 -20 -20 -20 -20 -20 -20 -20 -20 -20 -20 -20 -20 -20 -20 9 -16 8 3 6 7 13 4 3 7 12 8
-20 -20 -20 -20 -20 -20 -20 -20 -20 -20 -20 -20 -20 -20 -20 -20 -20 -20 -20 -20 -8 -20 13 13 8 15 13 2 -20 -11 9 -17
-20 -20 -20 -20 -20 -20 -20 -20 -20 -20 -20 -20 -20 -20 -20 -20 -20 -20 -20 -18 -4 8 8 14 16 16 14 11 -2 -20 -14 -3
-20 -20 -20 -20 -20 -20 -20 -20 -20 -20 -20 -19 -20 -20 -20 -20 -20 -20 -20 -20 -5 11 16 13 19 33 14 6 12 -2 -20 -3
-20 -20 -20 -20 -20 -20 -20 -20 -20 -20 -20 -20 -20 -18 -9 -20 -20 -20 11 7 6 12 12 0 -6 9 16 29 -1 10 25 -12
-20 -20 -20 -20 -20 -20 -20 -20 -20 -16 -12 -14 -20 -20 -20 10 -10 3 -15 -0 13 -14 8 -3 10 32 19 29 39 21 13 7
-20 -20 -20 -20 -20 -20 -20 -20 -18 -19 2 -6 -20 -20 -3 4 26 -11 -19 25 -15 5 -17 -13 11 36 30 49 37 24 7 -20
-10 -20 -20 -18 -20 -1 2 -20 -19 -6 11 8 -8 -20 8 12 30 26 -13 9 2 -14 28 27 32 22 43 30 24 -5 17 10
-13 -20 -20 -20 -10 -20 1 -15 -20 20 12 15 31 11 21 16 23 28 10 16 20 13 3 -10 6 -1 24 3 8 11 16 18
-20 -20 -20 -20 -20 -20 1 -12 -5 17 31 20 4 27 23 24 22 26 17 12 -5 12 17 11 6 -0 8 10 -16 4 6 22
-20 -20 -20 -20 -20 -20 -8 -1 -9 23 25 32 17 23 34 33 30 22 18 9 16 -11 11 6 17 -6 -4 -20 -18 22 6 13
-20 -20 -20 -11 -20 -20 -20 3 10 15 18 29 15 16 36 35 31 20 12 -20 -20 -20 -20 -20 -20 -20 -20 -20 -20 -11 5 -1
-20 -20 -20 -9 -20 -20 -20 -15 20 16 18 34 26 27 34 41 15 14 15 13 10 -6 -20 -20 -20 -20 -20 -20 -20 -20 -17 -20
-20 -20 -20 -20 -20 -20 -11 -8 11 26 27 31 29 11 28 30 31 34 13 6 6 -9 -20 -20 -20 -20 -20 -20 -20 -20 -20 -20
-20 -20 -20 -20 -20 -20 -1 3 6 17 21 19 15 -2 19 15 15 22 29 28 30 2 9 -20 -20 -20 -20 10 6 -20 -20 -20
-20 -20 -20 -20 -19 -20 -20 -9 5 4 17 12 11 -1 6 -16 -7 0 -3 -8 -19 4 -17 -20 -20 -20 -18 9 6 -20 -20 -20
-20 -20 -20 -20 -14 -20 -20 -20 -15 -3 6 8 13 -3 -20 -17 -19 -20 -20 -20 2 16 -8 -20 -20 -20 -17 10 10 -20 -20 -20